Time,TemperatureF,DewpointF,PressureIn,WindDirection,WindDirectionDegrees,WindSpeedMPH,WindSpeedGustMPH,Humidity,HourlyPrecipIn,Conditions,Clouds,dailyrainin,SoftwareType,DateUTC
2013-03-10 00:29:00,36.7,34.3,30.19,East,81,0.0,8.0,91,0.00,,,0.00,VWS V14.01,2013-03-10 08:29:00,
2013-03-10 00:59:00,36.8,33.9,30.20,ENE,77,0.0,6.0,89,0.00,,,0.00,VWS V14.01,2013-03-10 08:59:00,
2013-03-10 01:29:00,36.6,33.4,30.20,East,87,0.0,6.0,88,0.00,,,0.00,VWS V14.01,2013-03-10 09:29:00,
2013-03-10 01:59:00,36.3,33.4,30.20,East,83,8.0,9.0,89,0.00,,,0.00,VWS V14.01,2013-03-10 09:59:00,
2013-03-10 03:29:00,35.6,32.4,30.20,East,85,0.0,10.0,88,0.00,,,0.00,VWS V14.01,2013-03-10 10:29:00,
2013-03-10 03:59:00,35.7,33.3,30.20,East,101,3.0,11.0,91,0.00,,,0.00,VWS V14.01,2013-03-10 10:59:00,
2013-03-10 04:29:00,36.1,32.6,30.19,East,89,7.0,10.0,87,0.00,,,0.00,VWS V14.01,2013-03-10 11:29:00,
2013-03-10 04:59:00,36.8,32.4,30.19,East,90,5.0,10.0,84,0.00,,,0.00,VWS V14.01,2013-03-10 11:59:00,
2013-03-10 05:29:00,36.1,32.0,30.19,East,93,2.0,10.0,85,0.00,,,0.00,VWS V14.01,2013-03-10 12:29:00,
2013-03-10 05:59:00,37.5,31.9,30.20,East,81,0.0,8.0,80,0.00,,,0.00,VWS V14.01,2013-03-10 12:59:00,
2013-03-10 06:29:00,37.9,31.4,30.20,East,83,0.0,6.0,77,0.00,,,0.00,VWS V14.01,2013-03-10 13:29:00,
2013-03-10 06:59:00,41.4,31.3,30.20,East,90,3.0,9.0,67,0.00,,,0.00,VWS V14.01,2013-03-10 13:59:00,
2013-03-10 07:29:00,45.3,30.5,30.21,East,87,11.0,18.0,56,0.00,,,0.00,VWS V14.01,2013-03-10 14:29:00,
2013-03-10 07:59:00,45.9,30.2,30.22,ENE,78,10.0,15.0,54,0.00,,,0.00,VWS V14.01,2013-03-10 14:59:00,
2013-03-10 08:29:00,50.0,31.1,30.23,East,86,0.0,15.0,48,0.00,,,0.00,VWS V14.01,2013-03-10 15:29:00,
2013-03-10 08:59:00,53.5,32.7,30.23,East,95,9.0,11.0,45,0.00,,,0.00,VWS V14.01,2013-03-10 15:59:00,
2013-03-10 09:29:00,54.9,29.8,30.24,East,84,6.0,20.0,38,0.00,,,0.00,VWS V14.01,2013-03-10 16:29:00,
2013-03-10 09:59:00,56.1,30.9,30.24,East,81,0.0,18.0,38,0.00,,,0.00,VWS V14.01,2013-03-10 16:59:00,
2013-03-10 10:29:00,57.4,31.4,30.25,ENE,75,8.0,11.0,37,0.00,,,0.00,VWS V14.01,2013-03-10 17:29:00,
2013-03-10 10:59:00,57.2,30.5,30.23,East,87,3.0,22.0,36,0.00,,,0.00,VWS V14.01,2013-03-10 17:59:00,
2013-03-10 11:29:00,59.5,27.2,30.23,East,100,9.0,11.0,29,0.00,,,0.00,VWS V14.01,2013-03-10 18:29:00,
2013-03-10 11:59:00,60.0,26.0,30.22,WNW,301,0.0,10.0,27,0.00,,,0.00,VWS V14.01,2013-03-10 18:59:00,
2013-03-10 12:29:00,60.1,28.6,30.22,ENE,77,7.0,21.0,30,0.00,,,0.00,VWS V14.01,2013-03-10 19:29:00,
2013-03-10 12:59:00,60.3,27.1,30.20,ESE,112,0.0,15.0,28,0.00,,,0.00,VWS V14.01,2013-03-10 19:59:00,
2013-03-10 13:29:00,60.7,29.1,30.19,East,93,6.0,17.0,30,0.00,,,0.00,VWS V14.01,2013-03-10 20:29:00,
2013-03-10 13:59:00,61.4,28.0,30.18,SSE,147,5.0,14.0,28,0.00,,,0.00,VWS V14.01,2013-03-10 20:59:00,
2013-03-10 14:29:00,63.0,25.7,30.17,SSE,149,7.0,19.0,24,0.00,,,0.00,VWS V14.01,2013-03-10 21:29:00,
2013-03-10 14:59:00,62.7,25.4,30.15,ESE,104,8.0,11.0,24,0.00,,,0.00,VWS V14.01,2013-03-10 21:59:00,
2013-03-10 15:29:00,64.3,38.2,30.15,NNW,345,8.0,12.0,38,0.00,,,0.00,VWS V14.01,2013-03-10 22:29:00,
2013-03-10 15:59:00,62.6,42.1,30.14,WNW,291,4.0,13.0,47,0.00,,,0.00,VWS V14.01,2013-03-10 22:59:00,
2013-03-10 16:29:00,60.8,41.5,30.13,WNW,295,2.0,12.0,49,0.00,,,0.00,VWS V14.01,2013-03-10 23:29:00,
2013-03-10 16:59:00,60.7,42.0,30.13,West,273,3.0,10.0,50,0.00,,,0.00,VWS V14.01,2013-03-10 23:59:00,
2013-03-10 17:29:00,60.0,39.2,30.12,West,276,1.0,12.0,46,0.00,,,0.00,VWS V14.01,2013-03-11 00:29:00,
2013-03-10 17:59:00,58.5,37.8,30.12,WNW,302,2.0,8.0,46,0.00,,,0.00,VWS V14.01,2013-03-11 00:59:00,
2013-03-10 18:29:00,56.9,39.0,30.13,NW,305,0.0,7.0,51,0.00,,,0.00,VWS V14.01,2013-03-11 01:29:00,
2013-03-10 18:59:00,53.2,39.7,30.14,NW,305,0.0,3.0,60,0.00,,,0.00,VWS V14.01,2013-03-11 01:59:00,
2013-03-10 19:29:00,48.5,39.2,30.15,ENE,76,3.0,3.0,70,0.00,,,0.00,VWS V14.01,2013-03-11 02:29:00,
2013-03-10 19:59:00,45.2,36.4,30.16,East,85,2.0,5.0,71,0.00,,,0.00,VWS V14.01,2013-03-11 02:59:00,
2013-03-10 20:29:00,43.5,35.1,30.16,East,86,3.0,6.0,72,0.00,,,0.00,VWS V14.01,2013-03-11 03:29:00,
2013-03-10 20:59:00,42.7,33.6,30.16,East,84,3.0,6.0,70,0.00,,,0.00,VWS V14.01,2013-03-11 03:59:00,
2013-03-10 21:29:00,41.9,32.1,30.16,East,85,3.0,6.0,68,0.00,,,0.00,VWS V14.01,2013-03-11 04:29:00,
2013-03-10 21:59:00,41.2,31.8,30.17,East,83,2.0,5.0,69,0.00,,,0.00,VWS V14.01,2013-03-11 04:59:00,
2013-03-10 22:29:00,41.6,31.8,30.17,East,86,2.0,9.0,68,0.00,,,0.00,VWS V14.01,2013-03-11 05:29:00,
2013-03-10 22:59:00,41.9,30.2,30.16,East,86,0.0,5.0,63,0.00,,,0.00,VWS V14.01,2013-03-11 05:59:00,
2013-03-10 23:29:00,42.2,28.5,30.16,ENE,72,0.0,8.0,58,0.00,,,0.00,VWS V14.01,2013-03-11 06:29:00,
2013-03-10 23:59:00,41.9,29.9,30.16,ENE,71,0.0,11.0,62,0.00,,,0.00,VWS V14.01,2013-03-11 06:59:00,